1487325600.39,32470,14.25,73576.0,2.61,-14.65,-14.43,0,*7E
1487325601.62,32471,14.25,73576.0,2.63,-14.37,-14.15,0,*79
1487325602.82,32472,14.25,73578.0,2.65,-14.19,-13.93,0,*79
1487325604.08,32473,14.25,73574.5,2.69,-14.19,-13.87,0,*71
1487325605.31,32474,14.25,73580.8,2.73,-14.23,-13.93,0,*71
1487325606.6,32475,14.25,73576.8,2.73,-14.83,-14.51,0,*73
1487325607.8,32476,14.25,73580.0,2.79,-15.07,-14.69,0,*7C
1487325609.05,32477,14.25,73578.8,2.79,-15.35,-15.01,0,*73
1487325610.29,32478,14.25,73580.0,2.79,-15.81,-15.49,0,*7F
1487325611.52,32479,14.25,73578.0,2.79,-15.63,-15.21,0,*7C
1487325612.8,32480,14.25,73578.0,2.81,-15.89,-15.43,0,*7D
1487325614.09,32481,14.25,73578.0,2.81,-16.23,-15.89,0,*79
1487325615.37,32482,14.25,73578.0,2.81,-17.07,-16.65,0,*7C
1487325616.63,32483,14.25,73576.0,2.81,-16.79,-16.31,0,*74
1487325617.88,32484,14.25,73576.0,2.79,-16.69,-16.23,0,*76
1487325619.09,32485,14.25,73580.8,2.79,-17.49,-16.93,0,*7F
1487325620.31,32486,14.25,73576.8,2.75,-17.55,-16.97,0,*79
1487325621.55,32487,14.25,73576.3,2.79,-17.35,-16.69,0,*73
1487325622.78,32488,14.25,73578.3,2.75,-17.73,-17.11,0,*7C
1487325624.04,32489,14.25,73582.0,2.75,-18.31,-17.59,0,*78
1487325625.3,32490,14.25,73582.0,2.73,-17.83,-17.21,0,*7F
1487325626.56,32491,14.25,73576.5,2.71,-17.97,-17.17,0,*7C
1487325627.79,32492,14.25,73576.8,2.69,-17.83,-16.97,0,*7A
1487325629.06,32493,14.25,73578.8,2.69,-17.63,-16.65,0,*78
1487325630.34,32494,14.25,73578.8,2.67,-17.97,-17.11,0,*78
1487325631.57,32495,14.25,73580.0,2.67,-17.69,-16.75,0,*7B
1487325632.8,32496,14.25,73578.5,2.67,-17.73,-16.83,0,*7A
1487325634.03,32497,14.25,73580.8,2.65,-17.55,-16.59,0,*7A
1487325635.26,32498,14.25,73576.5,2.65,-17.41,-16.37,0,*78
1487325636.5,32499,14.25,73576.3,2.63,-17.59,-16.45,0,*73
1487325637.72,32500,14.25,73576.3,2.65,-17.31,-16.23,0,*7A
1487325638.99,32501,14.25,73578.3,2.63,-17.93,-16.69,0,*7B
1487325640.27,32502,14.25,73582.3,2.63,-17.45,-16.31,0,*7E
1487325641.47,32503,14.25,73578.0,2.61,-17.35,-15.99,0,*7B
1487325642.7,32504,14.25,73578.0,2.61,-17.17,-15.95,0,*70
1487325643.92,32505,14.25,73578.5,2.61,-17.63,-16.41,0,*78
1487325645.14,32506,14.25,73578.5,2.61,-17.59,-16.03,0,*74
1487325646.39,32507,14.25,73576.3,2.61,-17.63,-16.13,0,*7D
1487325647.62,32508,14.25,73576.8,2.61,-17.35,-15.85,0,*7D
1487325648.87,32509,14.25,73576.8,2.61,-17.17,-15.57,0,*73
1487325650.08,32510,14.25,73576.3,2.61,-16.75,-15.15,0,*78
1487325651.27,32511,14.25,73578.0,2.61,-17.31,-15.71,0,*7A
1487325652.52,32512,14.25,73578.0,2.61,-17.63,-15.81,0,*71
1487325653.75,32513,14.25,73576.0,2.61,-17.45,-15.67,0,*7C
1487325654.98,32514,14.25,73578.3,2.61,-17.87,-16.09,0,*7E
1487325656.2,32515,14.25,73578.3,2.61,-17.93,-15.99,0,*70
1487325657.43,32516,14.25,73578.5,2.61,-18.55,-16.55,0,*75
1487325658.68,32517,14.25,73580.0,2.59,-18.41,-16.31,0,*78
1487325659.95,32518,14.25,73578.5,2.59,-18.59,-16.51,0,*78
1487325661.2,32519,14.25,73576.8,2.59,-18.45,-16.31,0,*72
1487325662.46,32520,14.25,73576.0,2.53,-18.35,-16.09,0,*7E
1487325663.69,32521,14.25,73576.5,2.53,-18.31,-16.03,0,*71
1487325664.92,32522,14.25,73578.5,2.57,-18.17,-15.85,0,*7F
1487325666.14,32523,14.25,73576.3,2.53,-17.93,-15.63,0,*71
1487325667.34,32524,14.25,73576.8,2.57,-18.17,-15.71,0,*72
1487325668.58,32525,14.25,73578.3,2.53,-18.01,-15.53,0,*70
1487325669.78,32526,14.25,73578.3,2.53,-18.45,-15.95,0,*79
1487325671.01,32527,14.25,73578.0,2.57,-18.49,-15.89,0,*7D
1487325672.26,32528,14.25,73574.0,2.53,-18.89,-16.27,0,*7D
1487325673.51,32529,14.25,73576.0,2.53,-18.89,-16.13,0,*7B
1487325674.71,32530,14.25,73576.8,2.53,-18.65,-15.95,0,*7C
1487325675.97,32531,14.25,73576.8,2.51,-19.03,-16.17,0,*77
1487325677.22,32532,14.25,73578.0,2.53,-18.89,-15.89,0,*71
1487325678.45,32533,14.25,73578.0,2.53,-19.13,-16.13,0,*72
1487325679.73,32534,14.25,73578.8,2.51,-19.41,-16.31,0,*70
1487325680.95,32535,14.25,73574.3,2.49,-20.09,-17.03,0,*7E
1487325682.18,32536,14.25,73576.3,2.49,-20.25,-17.07,0,*77
1487325683.44,32537,14.25,73572.8,2.49,-20.49,-17.21,0,*78
1487325684.66,32538,14.25,73576.5,2.49,-20.19,-16.83,0,*7B
1487325685.88,32539,14.25,73578.3,2.45,-20.09,-16.65,0,*7F
1487325687.13,32540,14.25,73576.0,2.43,-20.05,-16.65,0,*7B
1487325688.34,32541,14.25,73572.8,2.45,-20.39,-16.79,0,*7E
1487325689.56,32542,14.25,73578.3,2.43,-20.05,-16.55,0,*7A
1487325690.84,32543,14.25,73578.5,2.43,-20.19,-16.65,0,*75
1487325692.13,32544,14.25,73576.3,2.43,-20.79,-17.07,0,*71
1487325693.33,32545,14.25,73576.5,2.41,-21.13,-17.31,0,*7A
1487325694.59,32546,14.25,73576.3,2.41,-21.03,-17.17,0,*7C
1487325695.79,32547,14.25,73576.5,2.37,-20.73,-16.75,0,*7F
1487325697.06,32548,14.25,73576.3,2.39,-20.35,-16.31,0,*7C
1487325698.27,32549,14.25,73576.5,2.37,-20.73,-16.75,0,*71
1487325699.48,32550,14.25,73578.8,2.35,-20.29,-16.27,0,*73
1487325700.71,32551,14.25,73576.0,2.37,-21.47,-17.25,0,*7A
1487325701.95,32552,14.25,73578.3,2.37,-21.77,-17.55,0,*7D
1487325703.17,32553,14.25,73574.5,2.35,-21.93,-17.63,0,*71
1487325704.45,32554,14.25,73576.3,2.33,-21.97,-17.59,0,*7D
1487325705.7,32555,14.25,73574.0,2.29,-22.03,-17.55,0,*75
1487325706.89,32556,14.25,73574.8,2.27,-22.03,-17.49,0,*75
1487325708.15,32557,14.25,73574.8,2.27,-22.21,-17.59,0,*75
1487325709.38,32558,14.25,73574.5,2.27,-22.37,-17.63,0,*74
1487325710.65,32559,14.25,73574.3,2.25,-22.73,-17.93,0,*78
1487325711.86,32560,14.25,73574.5,2.23,-22.93,-18.11,0,*7F
1487325713.09,32561,14.25,73574.0,2.23,-22.93,-17.93,0,*7B
1487325714.35,32562,14.25,73572.0,2.21,-22.57,-17.41,0,*7D
1487325715.58,32563,14.25,73574.0,2.19,-21.73,-16.65,0,*75
1487325716.83,32564,14.25,73574.8,2.19,-21.83,-16.65,0,*7D
1487325718.03,32565,14.25,73574.8,2.19,-22.97,-17.69,0,*77
1487325719.27,32566,14.25,73574.3,2.19,-22.53,-17.07,0,*74
1487325720.5,32567,14.25,73578.8,2.17,-22.07,-16.59,0,*70
1487325721.72,32568,14.25,73578.0,2.15,-21.63,-16.23,0,*71
1487325722.98,32569,14.25,73572.8,2.17,-22.31,-16.75,0,*75
1487325724.18,32570,14.25,73576.3,2.15,-22.67,-16.97,0,*70
1487325725.4,32571,14.25,73576.0,2.15,-22.07,-16.27,0,*7C
1487325726.6,32572,14.25,73572.0,2.15,-22.37,-16.55,0,*79
1487325727.85,32573,14.25,73572.0,2.15,-23.03,-17.25,0,*78
1487325729.11,32574,14.25,73574.3,2.15,-23.03,-17.11,0,*78
1487325730.34,32575,14.25,73572.5,2.13,-22.57,-16.55,0,*7E
1487325731.57,32576,14.25,73574.5,2.11,-22.41,-16.27,0,*7D
1487325732.85,32577,14.25,73574.3,2.13,-22.47,-16.27,0,*78
1487325734.07,32578,14.25,73572.3,2.13,-22.87,-16.55,0,*7E
1487325735.31,32579,14.25,73574.0,2.11,-22.57,-16.13,0,*72
1487325736.54,32580,14.25,73574.5,2.11,-22.93,-16.27,0,*7B
1487325737.75,32581,14.25,73572.0,2.11,-23.09,-16.55,0,*7D
1487325738.95,32582,14.25,73574.0,2.11,-22.63,-15.99,0,*70
1487325740.19,32583,14.25,73572.3,2.11,-22.57,-15.85,0,*7B
1487325741.44,32584,14.25,73574.5,2.11,-23.03,-16.31,0,*70
1487325742.68,32585,14.25,73570.3,2.11,-23.09,-16.17,0,*7F
1487325743.93,32586,14.25,73570.3,2.07,-23.65,-16.69,0,*78
1487325745.13,32587,14.25,73570.5,2.11,-23.43,-16.45,0,*74
1487325746.39,32588,14.25,73574.3,2.05,-23.53,-16.41,0,*7B
1487325747.62,32589,14.25,73574.0,2.07,-23.09,-15.89,0,*70
1487325748.87,32590,14.25,73572.8,2.05,-23.65,-16.41,0,*77
1487325750.13,32591,14.25,73572.3,2.03,-24.11,-16.65,0,*72
1487325751.36,32592,14.25,73572.0,2.03,-23.79,-16.51,0,*7F
1487325752.61,32593,14.25,73574.8,2.03,-23.95,-16.51,0,*7C
1487325753.87,32594,14.25,73574.5,2.01,-24.21,-16.75,0,*77
1487325755.1,32595,14.25,73570.0,2.01,-24.47,-16.89,0,*75
1487325756.33,32596,14.25,73570.5,1.99,-24.15,-16.55,0,*72
1487325757.58,32597,14.25,73572.8,1.97,-24.11,-16.45,0,*78
1487325758.8,32598,14.25,73572.3,1.99,-23.89,-16.23,0,*7F
1487325760.08,32599,14.25,73574.5,1.97,-23.29,-15.57,0,*7A
1487325761.35,32600,14.25,73572.3,1.97,-23.23,-15.43,0,*76
1487325762.58,32601,14.25,73572.3,1.97,-23.59,-15.71,0,*7B
1487325763.83,32602,14.25,73570.8,1.97,-23.39,-15.57,0,*7A
1487325765.08,32603,14.25,73572.5,1.97,-22.93,-15.21,0,*7B
1487325766.33,32604,14.25,73572.8,1.97,-22.97,-15.35,0,*7D
1487325767.59,32605,14.25,73568.8,1.97,-23.53,-15.71,0,*75
1487325768.82,32606,14.25,73572.0,1.95,-23.33,-15.49,0,*79
1487325770.08,32607,14.25,73572.5,1.93,-23.03,-15.11,0,*70
1487325771.33,32608,14.25,73570.5,1.93,-23.13,-15.35,0,*78
1487325772.56,32609,14.25,73572.0,1.93,-22.97,-15.11,0,*72
1487325773.81,32610,14.25,73572.3,1.95,-22.73,-14.97,0,*79
1487325775.04,32611,14.25,73570.5,1.93,-22.37,-14.61,0,*77
1487325776.32,32612,14.25,73572.3,1.93,-22.73,-14.97,0,*7D
1487325777.55,32613,14.25,73570.8,1.95,-23.33,-15.49,0,*7D
1487325778.8,32614,14.25,73574.0,1.93,-23.65,-15.67,0,*73
1487325780.05,32615,14.25,73570.8,1.93,-22.87,-15.21,0,*7D
1487325781.3,32616,14.25,73572.3,1.93,-22.63,-14.79,0,*78
1487325782.58,32617,14.25,73570.0,1.93,-22.31,-14.51,0,*74
1487325783.8,32618,14.25,73572.8,1.93,-22.07,-14.33,0,*7A
1487325785.03,32619,14.25,73570.0,1.93,-22.37,-14.61,0,*7F
1487325786.26,32620,14.25,73570.8,1.93,-22.37,-14.61,0,*75
1487325787.55,32621,14.25,73572.3,1.93,-22.17,-14.47,0,*72
1487325788.74,32622,14.25,73568.8,1.95,-22.03,-14.37,0,*75
1487325789.97,32623,14.25,73574.0,1.93,-21.93,-14.33,0,*7C
1487325791.23,32624,14.25,73570.8,1.93,-22.37,-14.75,0,*74
1487325792.5,32625,14.25,73572.8,1.93,-22.31,-14.79,0,*7F
1487325793.76,32626,14.25,73572.8,1.93,-21.93,-14.47,0,*7A
1487325794.99,32627,14.25,73572.3,1.93,-22.03,-14.61,0,*75
1487325796.21,32628,14.25,73576.0,1.91,-21.97,-14.69,0,*7E
1487325797.46,32629,14.25,73570.0,1.91,-21.83,-14.43,0,*72
1487325798.72,32630,14.25,73572.0,1.93,-21.87,-14.61,0,*7C
1487325799.95,32631,14.25,73572.0,1.93,-21.93,-14.61,0,*78
1487325801.2,32632,14.25,73570.8,1.93,-21.53,-14.37,0,*74
1487325802.49,32633,14.25,73574.5,1.93,-21.23,-14.01,0,*77
1487325803.75,32634,14.25,73574.0,1.93,-20.79,-13.79,0,*76
1487325805.03,32635,14.25,73570.3,1.93,-20.83,-13.87,0,*73
1487325806.27,32636,14.25,73570.0,1.95,-20.79,-13.79,0,*72
1487325807.49,32637,14.25,73570.0,1.95,-20.49,-13.51,0,*7A
1487325808.71,32638,14.25,73572.3,1.95,-20.35,-13.51,0,*7E
1487325809.93,32639,14.25,73572.5,1.97,-20.39,-13.73,0,*71
1487325811.16,32640,14.25,73568.8,1.97,-20.43,-13.73,0,*72
1487325812.36,32641,14.25,73570.5,1.99,-19.91,-13.23,0,*7D
1487325813.58,32642,14.25,73572.5,1.99,-19.91,-13.37,0,*7B
1487325814.8,32643,14.25,73570.8,1.99,-20.19,-13.65,0,*77
1487325816.02,32644,14.25,73572.0,2.01,-20.59,-14.11,0,*72
1487325817.28,32645,14.25,73568.5,2.01,-20.53,-14.15,0,*7D
1487325818.53,32646,14.25,73570.8,2.01,-20.53,-14.37,0,*7E
1487325819.78,32647,14.25,73568.0,2.01,-20.83,-14.37,0,*72
1487325821.03,32648,14.25,73568.3,2.01,-20.73,-14.55,0,*76
1487325822.3,32649,14.25,73572.8,2.01,-20.53,-14.43,0,*72
1487325823.55,32650,14.25,73568.8,2.03,-20.53,-14.51,0,*7B
1487325824.78,32651,14.25,73570.5,2.03,-20.09,-14.01,0,*70
1487325826.05,32652,14.25,73570.0,2.01,-19.81,-13.97,0,*73
1487325827.25,32653,14.19,73570.0,2.03,-19.91,-13.93,0,*75
1487325828.5,32654,14.25,73570.5,2.03,-19.85,-14.05,0,*7F
1487325829.7,32655,14.25,73570.5,2.03,-19.99,-14.19,0,*7E
1487325830.93,32656,14.25,73572.3,2.05,-19.91,-14.23,0,*7A
1487325832.2,32657,14.25,73568.3,2.05,-20.15,-14.51,0,*78
1487325833.43,32658,14.25,73574.5,2.03,-20.19,-14.61,0,*7E
1487325834.65,32659,14.25,73570.3,2.05,-19.75,-14.33,0,*7E
1487325835.86,32660,14.19,73566.5,2.07,-19.71,-14.33,0,*72
1487325837.11,32661,14.25,73570.8,2.05,-19.57,-14.19,0,*7D
1487325838.34,32662,14.19,73566.8,2.07,-19.37,-14.05,0,*77
1487325839.57,32663,14.25,73574.3,2.05,-19.51,-14.33,0,*71
1487325840.78,32664,14.19,73570.0,2.07,-19.37,-14.15,0,*70
1487325842.0,32665,14.25,73570.8,2.07,-19.47,-14.43,0,*75
1487325843.22,32666,14.25,73570.3,2.11,-19.81,-14.89,0,*7D
1487325844.46,32667,14.19,73570.8,2.11,-19.95,-14.97,0,*76
1487325845.66,32668,14.19,73570.3,2.11,-20.09,-15.11,0,*79
1487325846.88,32669,14.19,73568.8,2.11,-19.81,-15.11,0,*72
1487325848.13,32670,14.19,73570.3,2.07,-19.65,-14.79,0,*78
1487325849.39,32671,14.19,73570.8,2.11,-19.31,-14.51,0,*75
1487325850.62,32672,14.19,73564.8,2.11,-19.75,-15.01,0,*72
1487325851.82,32673,14.19,73570.3,2.11,-19.75,-15.15,0,*76
1487325853.08,32674,14.25,73568.3,2.11,-19.41,-14.83,0,*78
1487325854.31,32675,14.19,73568.0,2.11,-18.99,-14.43,0,*71
1487325855.54,32676,14.25,73570.8,2.11,-19.31,-14.89,0,*77
1487325856.79,32677,14.19,73566.3,2.11,-19.81,-15.43,0,*7A
1487325858.03,32678,14.25,73570.0,2.11,-19.17,-15.01,0,*7C
1487325859.29,32679,14.25,73572.3,2.13,-19.31,-15.11,0,*7A
1487325860.53,32680,14.25,73570.0,2.11,-19.17,-14.97,0,*75
1487325861.81,32681,14.25,73568.3,2.13,-19.65,-15.57,0,*7E
1487325863.02,32682,14.19,73570.3,2.11,-19.51,-15.53,0,*7C
1487325864.27,32683,14.19,73566.3,2.11,-19.31,-15.29,0,*76
1487325865.5,32684,14.19,73568.5,2.11,-19.51,-15.57,0,*7E
1487325866.74,32685,14.25,73570.5,2.11,-19.61,-15.75,0,*7C
1487325867.97,32686,14.25,73570.0,2.07,-19.57,-15.75,0,*7D
1487325869.21,32687,14.19,73568.0,2.11,-19.47,-15.85,0,*75
1487325870.44,32688,14.25,73570.8,2.11,-19.31,-15.75,0,*74
1487325871.65,32689,14.19,73570.8,2.07,-19.47,-15.75,0,*73
1487325872.89,32690,14.25,73570.3,2.05,-19.13,-15.53,0,*7C
1487325874.15,32691,14.19,73570.5,2.05,-19.41,-15.95,0,*70
1487325875.4,32692,14.19,73568.0,2.07,-19.31,-15.81,0,*73
1487325876.63,32693,14.19,73568.0,2.07,-18.73,-15.43,0,*7B
1487325877.83,32694,14.19,73570.3,2.07,-19.03,-15.67,0,*7C
1487325879.06,32695,14.19,73568.8,2.05,-18.79,-15.53,0,*74
1487325880.26,32696,14.25,73570.5,2.07,-18.17,-15.07,0,*7C
1487325881.5,32697,14.19,73568.0,2.11,-18.25,-14.97,0,*73
1487325882.74,32698,14.19,73568.5,2.13,-18.41,-15.25,0,*74
1487325883.95,32699,14.19,73568.8,2.11,-18.45,-15.29,0,*7F
1487325885.15,32700,14.25,73570.3,2.11,-19.03,-15.99,0,*76
1487325886.38,32701,14.25,73570.3,2.13,-18.99,-16.03,0,*77
1487325887.59,32702,14.19,73568.0,2.11,-19.51,-16.55,0,*70
1487325888.8,32703,14.19,73570.8,2.11,-18.69,-15.71,0,*7E
1487325890.03,32704,14.25,73570.0,2.07,-18.41,-15.43,0,*75
1487325891.26,32705,14.19,73570.5,2.07,-18.59,-15.63,0,*7F
1487325892.47,32706,14.19,73568.8,2.11,-18.25,-15.29,0,*7E
1487325893.72,32707,14.19,73570.0,2.11,-18.55,-15.57,0,*71
1487325894.98,32708,14.19,73570.8,2.13,-18.55,-15.63,0,*7B
1487325896.19,32709,14.19,73570.8,2.11,-18.69,-15.71,0,*74
1487325897.42,32710,14.19,73572.3,2.11,-18.73,-15.89,0,*70
1487325898.65,32711,14.19,73568.0,2.11,-19.03,-16.13,0,*77
1487325899.88,32712,14.19,73574.0,2.11,-19.31,-16.45,0,*76
1487325901.12,32713,14.19,73568.8,2.11,-19.13,-16.27,0,*73
1487325902.34,32714,14.25,73572.8,2.07,-19.17,-16.23,0,*73
1487325903.57,32715,14.25,73572.8,2.07,-19.57,-16.83,0,*7C
1487325904.8,32716,14.19,73570.8,2.07,-19.71,-17.11,0,*71
1487325906.04,32717,14.19,73572.0,2.05,-19.37,-16.41,0,*74
1487325907.32,32718,14.19,73570.5,2.05,-19.57,-16.65,0,*7B
1487325908.58,32719,14.25,73572.5,2.05,-19.91,-17.03,0,*71
1487325909.82,32720,14.19,73568.5,2.05,-20.05,-17.17,0,*79
1487325911.1,32721,14.19,73574.3,2.01,-19.31,-16.31,0,*74
1487325912.36,32722,14.19,73568.3,2.01,-19.13,-16.27,0,*70
1487325913.57,32723,14.19,73570.8,2.03,-19.51,-16.55,0,*70
1487325914.8,32724,14.19,73570.5,2.01,-19.91,-16.93,0,*73
1487325916.07,32725,14.19,73568.3,2.01,-19.65,-16.69,0,*7C
1487325917.31,32726,14.19,73568.3,1.99,-19.57,-16.41,0,*76
1487325918.51,32727,14.19,73570.8,1.99,-19.47,-16.41,0,*76
1487325919.71,32728,14.19,73572.8,1.99,-19.95,-16.93,0,*79
1487325920.93,32729,14.25,73576.0,1.97,-20.09,-16.79,0,*7D
1487325922.18,32730,14.19,73572.5,1.97,-19.85,-16.75,0,*77
1487325923.4,32731,14.19,73568.8,1.99,-20.25,-17.03,0,*78
1487325924.65,32732,14.19,73572.0,1.97,-19.65,-16.45,0,*78
1487325925.9,32733,14.19,73572.3,1.97,-19.51,-16.23,0,*7E
1487325927.15,32734,14.19,73572.3,1.97,-19.51,-16.23,0,*79
1487325928.4,32735,14.19,73572.3,1.97,-19.61,-16.37,0,*7E
1487325929.64,32736,14.19,73570.5,1.97,-19.37,-15.95,0,*75
1487325930.89,32737,14.19,73570.8,1.97,-19.03,-15.57,0,*7D
1487325932.12,32738,14.19,73568.0,1.97,-19.17,-15.71,0,*73
1487325933.37,32739,14.19,73570.5,1.97,-19.47,-15.89,0,*70
1487325934.62,32740,14.19,73568.8,1.97,-19.51,-15.89,0,*79
1487325935.88,32741,14.19,73570.8,1.97,-19.71,-16.17,0,*7E
1487325937.16,32742,14.19,73570.8,1.97,-19.85,-16.17,0,*76
1487325938.4,32743,14.19,73570.5,1.95,-19.85,-16.23,0,*72
1487325939.63,32744,14.25,73572.3,1.95,-19.65,-15.95,0,*75
1487325940.84,32745,14.19,73570.3,1.95,-19.71,-15.95,0,*71
1487325942.1,32746,14.19,73570.8,1.93,-19.71,-15.85,0,*75
1487325943.36,32747,14.19,73574.0,1.95,-19.65,-15.81,0,*73
1487325944.59,32748,14.19,73568.8,1.95,-19.75,-15.81,0,*7D
1487325945.84,32749,14.19,73570.8,1.95,-20.19,-16.13,0,*74
1487325947.08,32750,14.19,73570.3,1.93,-20.29,-16.27,0,*7E
1487325948.33,32751,14.19,73570.0,1.93,-20.19,-15.99,0,*7A
1487325949.6,32752,14.19,73574.5,1.93,-20.35,-16.09,0,*7D
1487325950.86,32753,14.19,73568.0,1.95,-20.19,-15.81,0,*77
1487325952.11,32754,14.19,73570.8,1.93,-20.35,-15.95,0,*7D
1487325953.38,32755,14.19,73572.0,1.93,-20.35,-15.81,0,*79
1487325954.65,32756,14.19,73570.8,1.93,-20.79,-16.23,0,*79
1487325955.89,32757,14.19,73568.5,1.93,-20.59,-15.95,0,*74
1487325957.11,32758,14.19,73570.0,1.95,-20.35,-15.67,0,*7A
1487325958.31,32759,14.19,73572.0,1.91,-20.69,-16.03,0,*77
1487325959.57,32760,14.19,73568.8,1.93,-20.63,-15.81,0,*7C
1487325960.79,32761,14.25,73572.5,1.89,-20.89,-16.03,0,*7B
1487325962.03,32762,14.19,73572.0,1.91,-20.63,-15.57,0,*77
1487325963.28,32763,14.19,73572.0,1.89,-20.63,-15.57,0,*7F
1487325964.56,32764,14.19,73572.0,1.89,-20.53,-15.39,0,*73
1487325965.84,32765,14.19,73574.0,1.89,-20.83,-15.57,0,*77
1487325967.09,32766,14.19,73572.0,1.93,-20.79,-15.53,0,*7E
1487325968.35,32767,14.19,73572.3,1.89,-20.89,-15.57,0,*7F
1487325969.6,32768,14.19,73568.5,1.89,-20.99,-15.53,0,*75
1487325970.86,32769,14.19,73568.8,1.89,-20.89,-15.43,0,*74
1487325972.11,32770,14.19,73570.5,1.89,-20.69,-15.01,0,*74
1487325973.33,32771,14.19,73570.5,1.89,-20.73,-15.11,0,*7F
1487325974.58,32772,14.19,73568.8,1.89,-20.63,-14.79,0,*72
1487325975.84,32773,14.19,73570.3,1.85,-21.17,-15.43,0,*75
1487325977.09,32774,14.19,73570.8,1.85,-21.09,-14.97,0,*75
1487325978.3,32775,14.19,73574.3,1.89,-20.73,-14.69,0,*75
1487325979.52,32776,14.19,73570.8,1.89,-20.73,-14.69,0,*76
1487325980.8,32777,14.19,73568.5,1.89,-20.99,-14.79,0,*72
1487325982.02,32778,14.19,73570.8,1.85,-20.93,-14.69,0,*7A
1487325983.27,32779,14.19,73570.5,1.85,-21.87,-15.63,0,*74
1487325984.53,32780,14.19,73570.8,1.83,-21.67,-15.43,0,*78
1487325985.73,32781,14.19,73570.8,1.83,-21.39,-14.89,0,*75
1487325987.0,32782,14.19,73568.5,1.83,-21.53,-14.97,0,*75
1487325988.22,32783,14.19,73570.5,1.83,-20.79,-14.29,0,*78
1487325989.44,32784,14.19,73572.3,1.85,-20.73,-14.15,0,*7C
1487325990.69,32785,14.19,73568.8,1.85,-20.73,-13.97,0,*70
1487325991.92,32786,14.19,73570.8,1.83,-21.03,-14.15,0,*7E
1487325993.14,32787,14.19,73574.8,1.85,-20.93,-14.15,0,*71
1487325994.37,32788,14.19,73568.3,1.83,-21.39,-14.55,0,*7D
1487325995.62,32789,14.19,73568.5,1.81,-21.27,-14.23,0,*70
1487325996.9,32790,14.19,73570.8,1.81,-21.53,-14.47,0,*79
1487325998.13,32791,14.19,73570.5,1.81,-21.39,-14.23,0,*76
1487325999.37,32792,14.19,73570.3,1.81,-21.57,-14.37,0,*78
1487326000.58,32793,14.19,73572.5,1.79,-21.63,-14.29,0,*76
1487326001.8,32794,14.19,73570.3,1.81,-21.43,-14.15,0,*7B
1487326003.06,32795,14.19,73570.3,1.81,-21.53,-14.15,0,*7B
1487326004.31,32796,14.19,73570.5,1.81,-21.39,-14.01,0,*71
1487326005.56,32797,14.19,73568.5,1.79,-21.27,-13.83,0,*75
1487326006.83,32798,14.19,73568.0,1.81,-20.99,-13.61,0,*75
1487326008.04,32799,14.19,73570.5,1.79,-21.13,-13.65,0,*74
1487326009.31,32800,14.19,73568.5,1.81,-21.57,-14.01,0,*79
1487326010.56,32801,14.19,73570.3,1.81,-20.83,-13.23,0,*77
1487326011.78,32802,14.19,73570.5,1.81,-20.63,-13.07,0,*7C
1487326013.02,32803,14.19,73570.3,1.81,-20.73,-13.01,0,*7A
1487326014.26,32804,14.19,73568.8,1.79,-20.83,-13.11,0,*74
1487326015.46,32805,14.19,73570.3,1.79,-20.63,-12.97,0,*74
1487326016.74,32806,14.19,73572.3,1.81,-20.49,-12.79,0,*78
1487326018.0,32807,14.19,73574.5,1.81,-20.35,-12.65,0,*7F
1487326019.22,32808,14.19,73568.3,1.81,-20.05,-12.39,0,*7A
1487326020.45,32809,14.19,73568.0,1.81,-20.63,-12.93,0,*7B
1487326021.71,32810,14.19,73570.3,1.81,-20.59,-12.79,0,*7E
1487326022.96,32811,14.19,73568.5,1.81,-20.43,-12.75,0,*78
1487326024.17,32812,14.19,73570.8,1.83,-20.59,-12.89,0,*71
1487326025.42,32813,14.19,73570.5,1.81,-20.99,-13.23,0,*7F
1487326026.64,32814,14.19,73570.5,1.83,-21.09,-13.29,0,*78
1487326027.88,32815,14.19,73568.5,1.81,-21.27,-13.47,0,*7F
1487326029.11,32816,14.19,73568.5,1.79,-21.17,-13.29,0,*70
1487326030.37,32817,14.19,73570.3,1.79,-21.27,-13.29,0,*72
1487326031.59,32818,14.19,73570.0,1.77,-21.47,-13.65,0,*7D
1487326032.85,32819,14.19,73570.0,1.77,-21.57,-13.55,0,*7E
1487326034.07,32820,14.19,73570.5,1.77,-21.63,-13.65,0,*70
1487326035.27,32821,14.19,73568.3,1.75,-21.63,-13.69,0,*7F
1487326036.53,32822,14.19,73570.8,1.75,-21.23,-13.33,0,*77
1487326037.73,32823,14.19,73568.5,1.75,-20.89,-13.11,0,*77
1487326038.98,32824,14.19,73574.3,1.73,-21.03,-13.11,0,*75
1487326040.21,32825,14.19,73574.0,1.73,-20.89,-13.11,0,*77
1487326041.46,32826,14.19,73572.3,1.73,-20.83,-12.97,0,*71
1487326042.72,32827,14.19,73572.5,1.73,-20.39,-12.71,0,*79
1487326043.94,32828,14.19,73568.3,1.71,-20.29,-12.43,0,*74
1487326045.16,32829,14.19,73574.3,1.73,-19.99,-12.25,0,*76
1487326046.41,32830,14.19,73568.8,1.71,-20.19,-12.47,0,*7A
1487326047.67,32831,14.19,73570.8,1.71,-20.59,-12.79,0,*72
1487326048.92,32832,14.19,73568.8,1.71,-20.19,-12.47,0,*78
1487326050.19,32833,14.19,73572.3,1.71,-19.81,-11.93,0,*78
1487326051.45,32834,14.19,73568.0,1.71,-19.37,-11.67,0,*79
1487326052.73,32835,14.19,73570.3,1.71,-19.27,-11.59,0,*74
1487326053.99,32836,14.19,73568.5,1.71,-19.51,-11.89,0,*7B
1487326055.25,32837,14.19,73568.5,1.71,-19.37,-11.89,0,*7A
1487326056.53,32838,14.19,73568.3,1.73,-19.61,-12.15,0,*72
1487326057.78,32839,14.19,73568.5,1.71,-20.29,-12.75,0,*71
1487326059.04,32840,14.19,73568.0,1.71,-20.19,-12.65,0,*7D
1487326060.29,32841,14.19,73570.3,1.71,-19.81,-12.43,0,*73
1487326061.53,32842,14.19,73568.5,1.67,-19.85,-12.47,0,*77
1487326062.74,32843,14.19,73570.3,1.69,-19.51,-12.21,0,*71
1487326063.99,32844,14.19,73568.5,1.67,-19.75,-12.53,0,*7B
1487326065.24,32845,14.19,73564.8,1.67,-19.91,-12.57,0,*74
1487326066.46,32846,14.19,73568.5,1.67,-19.75,-12.47,0,*7C
1487326067.71,32847,14.19,73568.5,1.67,-19.61,-12.47,0,*78
1487326068.96,32848,14.19,73570.8,1.67,-19.41,-12.47,0,*75
1487326070.19,32849,14.19,73568.0,1.67,-19.13,-12.25,0,*77
1487326071.41,32850,14.19,73568.0,1.65,-18.79,-11.85,0,*79
1487326072.64,32851,14.19,73570.3,1.65,-18.79,-11.85,0,*78
1487326073.88,32852,14.19,73568.5,1.65,-18.35,-11.51,0,*7A
1487326075.11,32853,14.19,73564.5,1.65,-18.79,-11.97,0,*79
1487326076.34,32854,14.19,73564.5,1.61,-18.41,-11.59,0,*73
1487326077.58,32855,14.19,73566.8,1.65,-17.93,-11.29,0,*71
1487326078.81,32856,14.19,73564.0,1.65,-17.59,-11.01,0,*7E
1487326080.03,32857,14.19,73566.8,1.67,-17.49,-10.89,0,*7D
1487326081.27,32858,14.19,73564.5,1.67,-17.31,-10.71,0,*7A
1487326082.54,32859,14.19,73564.0,1.67,-17.79,-11.29,0,*7B
1487326083.77,32860,14.19,73568.3,1.67,-17.49,-10.97,0,*76
1487326085.05,32861,14.19,73568.3,1.67,-17.11,-10.75,0,*76
1487326086.3,32862,14.19,73568.3,1.67,-16.97,-10.71,0,*7E
1487326087.5,32863,14.19,73568.3,1.69,-16.83,-10.53,0,*74
1487326088.71,32864,14.19,73566.8,1.69,-16.41,-10.27,0,*7E
1487326089.94,32865,14.19,73568.0,1.69,-16.51,-10.49,0,*76
1487326091.16,32866,14.19,73566.5,1.69,-16.79,-10.71,0,*74
1487326092.4,32867,14.19,73566.5,1.71,-16.37,-10.35,0,*76
1487326093.65,32868,14.19,73566.5,1.73,-16.31,-10.57,0,*79
1487326094.88,32869,14.19,73568.5,1.73,-16.03,-10.35,0,*7D
1487326096.13,32870,14.19,73566.8,1.71,-16.37,-10.63,0,*73
1487326097.39,32871,14.19,73570.5,1.73,-15.89,-10.35,0,*75
1487326098.64,32872,14.19,73564.5,1.73,-15.57,-9.97,0,*45
1487326099.89,32873,14.19,73564.8,1.73,-15.89,-10.57,0,*73
1487326101.12,32874,14.19,73566.8,1.75,-15.99,-10.67,0,*70
1487326102.38,32875,14.19,73564.3,1.75,-15.89,-10.63,0,*74
1487326103.64,32876,14.19,73568.8,1.75,-15.89,-10.67,0,*73